Location: Unspecified
(0.0000°N, 0.0000°E)
Time: 04:50:46
(UTC+02:00)

CZ-4B DEB - Visible Passes

Search period start: 16 September 2014 00:00
Search period end: 26 September 2014 00:00
Orbit: 522 x 534 km, 97.5° (Epoch: 14 September)

Date Brightness Start Highest point End Pass type
(mag) Time Alt. Az. Time Alt. Az. Time Alt. Az.
16 Sep 3.7 20:53:23 10° S 20:57:08 63° WSW 21:00:53 10° NNW visible
17 Sep 3.1 20:42:11 10° SSE 20:45:59 83° ENE 20:49:46 10° N visible
18 Sep 3.3 20:31:05 10° SSE 20:34:47 52° E 20:38:29 10° N visible
19 Sep 3.9 20:20:06 10° SE 20:23:33 33° ENE 20:27:00 10° NNE visible
20 Sep 6.7 21:45:47 10° WSW 21:46:17 10° WSW 21:46:47 10° W visible
21 Sep 6.3 21:32:40 10° SW 21:34:58 16° WSW 21:37:17 10° WNW visible
22 Sep 5.7 21:20:35 10° SSW 21:23:37 23° WSW 21:26:40 10° NW visible
23 Sep 4.9 21:08:46 10° SSW 21:12:14 34° WSW 21:15:43 10° NW visible
24 Sep 4.0 20:57:05 10° S 21:00:48 54° WSW 21:04:31 10° NNW visible
25 Sep 3.2 20:45:32 10° S 20:49:20 87° W 20:53:08 10° NNW visible
